San Diego Brown, CA

3:17 AM PST on November 21, 2017 (GMT -0800)
Brown Municipal

Weather History for KSDM - December, 2013

Change the Weather History Date:

Saturday, December 28, 2013

  Actual Average Record
Temperature  
Mean Temperature 59 °F -  
Max Temperature 72 °F 66 °F 78 °F (2011)
Min Temperature 46 °F 43 °F 33 °F (1954)
Degree Days  
Heating Degree Days 6    
Growing Degree Days 9 (Base 50)    
Moisture  
Dew Point 32 °F    
Average Humidity 48    
Maximum Humidity 100    
Minimum Humidity 13    
Precipitation  
Precipitation 0.00 in - - ()
Sea Level Pressure  
Sea Level Pressure 29.99 in    
Wind  
Wind Speed 4 mph (SE)    
Max Wind Speed 9 mph    
Max Gust Speed -    
Visibility 9 miles    
Events Fog    
T = Trace of Precipitation, MM = Missing Value Source: NWS Daily Summary

Daily Weather History Graph

Daily Weather History Graph

Search for Another Location

Airport or City:

Trip Planner

Search our weather history database for the weather conditions in past years. The results will help you decide how hot, cold, wet, or windy it might be!

Date:

Astronomy

Dec. 28, 2013 Rise Set
Actual Time 6:48 AM PST 4:50 PM PST
Civil Twilight 6:21 AM PST 5:17 PM PST
Nautical Twilight 5:50 AM PST 5:48 PM PST
Astronomical Twilight 5:20 AM PST 6:18 PM PST
Moon 2:38 AM PST (12/28) 1:38 PM PST (12/28)
Length of Visible Light 10h 56m
Length of Day
10h 01m
Waning Crescent, 18% of the Moon is Illuminated
Dec 28
Waning Crescent
Jan 1
New
Jan 7
First Quarter
Jan 15
Full
Jan 23
Last Quarter

Hourly Weather History & Observations

Time (PST) Temp. Dew Point Humidity Pressure Visibility Wind Dir Wind Speed Gust Speed Precip Events Conditions
12:53 AM 55.0 °F 19.0 °F 24% 30.04 in 10.0 mi ENE 3.5 mph - N/A   Clear
1:53 AM 51.1 °F 24.1 °F 35% 30.03 in 10.0 mi South 4.6 mph - N/A   Clear
2:53 AM 53.1 °F 21.0 °F 29% 30.01 in 10.0 mi East 4.6 mph - N/A   Clear
3:53 AM 54.0 °F 21.0 °F 28% 30.00 in 10.0 mi SE 5.8 mph - N/A   Clear
4:53 AM 55.9 °F 18.0 °F 23% 30.01 in 10.0 mi Calm Calm - N/A   Clear
5:53 AM 52.0 °F 24.1 °F 34% 30.01 in 10.0 mi ESE 4.6 mph - N/A   Clear
6:53 AM 55.0 °F 21.0 °F 27% 30.01 in 10.0 mi SSE 9.2 mph - N/A   Clear
7:53 AM 55.0 °F 21.9 °F 28% 30.02 in 10.0 mi Calm Calm - N/A   Clear
8:53 AM 61.0 °F 19.9 °F 21% 30.04 in 10.0 mi Calm Calm - N/A   Clear
9:53 AM 63.0 °F 21.9 °F 21% 30.05 in 10.0 mi South 3.5 mph - N/A   Clear
10:53 AM 66.9 °F 19.0 °F 16% 30.03 in 10.0 mi South 5.8 mph - N/A   Clear
11:53 AM 69.1 °F 18.0 °F 14% 29.99 in 10.0 mi SSE 5.8 mph - N/A   Clear
12:53 PM 72.0 °F 19.0 °F 13% 29.96 in 10.0 mi South 3.5 mph - N/A   Clear
1:53 PM 71.1 °F 36.0 °F 28% 29.94 in 10.0 mi West 8.1 mph - N/A   Clear
2:53 PM 71.1 °F 25.0 °F 18% 29.95 in 10.0 mi SW 9.2 mph - N/A   Clear
3:53 PM 68.0 °F 30.9 °F 25% 29.94 in 10.0 mi SSW 9.2 mph - N/A   Clear
4:53 PM 63.0 °F 25.0 °F 24% 29.94 in 10.0 mi South 4.6 mph - N/A   Clear
5:53 PM 57.9 °F 42.1 °F 56% 29.95 in 10.0 mi North 3.5 mph - N/A   Clear
6:53 PM 55.0 °F 50.0 °F 83% 29.97 in 10.0 mi Calm Calm - N/A   Clear
7:53 PM 54.0 °F 52.0 °F 93% 29.98 in 6.0 mi Calm Calm - N/A   Clear
8:44 PM 50.0 °F 50.0 °F 100% 29.99 in 1.2 mi East 3.5 mph - N/A   Clear
8:51 PM 48.2 °F 46.4 °F 93% 29.99 in 0.5 mi East 4.6 mph - N/A Fog Fog
8:53 PM 48.0 °F 46.9 °F 96% 29.99 in 0.5 mi East 3.5 mph - N/A Fog Fog
8:56 PM 48.2 °F 46.4 °F 93% 29.99 in 2.5 mi NE 3.5 mph - N/A   Partly Cloudy
9:03 PM 51.8 °F 50.0 °F 94% 29.99 in 10.0 mi NE 3.5 mph - N/A   Partly Cloudy
9:53 PM 48.9 °F 46.0 °F 90% 29.99 in 10.0 mi ENE 4.6 mph - N/A   Clear
10:53 PM 46.9 °F 39.0 °F 74% 30.00 in 10.0 mi Calm Calm - N/A   Clear
11:53 PM 46.9 °F 39.0 °F 74% 29.99 in 10.0 mi ESE 3.5 mph - N/A   Clear